TimeCDT,TemperatureF,Dew PointF,Humidity,Sea Level PressureIn,VisibilityMPH,Wind Direction,Wind SpeedMPH,Gust SpeedMPH,PrecipitationIn,Events,Conditions,WindDirDegrees,DateUTC
12:53 AM,79.0,73.0,82,30.01,10.0,SW,3.5,-,N/A,,Clear,230,2013-08-01 05:53:00
1:53 AM,78.1,73.9,87,30.00,10.0,SW,5.8,-,N/A,,Clear,230,2013-08-01 06:53:00
2:53 AM,79.0,73.9,84,29.98,10.0,SW,5.8,-,N/A,,Clear,230,2013-08-01 07:53:00
3:53 AM,78.1,73.9,87,29.99,10.0,SW,4.6,-,N/A,,Clear,230,2013-08-01 08:53:00
4:53 AM,78.1,73.9,87,29.99,10.0,SW,6.9,-,N/A,,Mostly Cloudy,230,2013-08-01 09:53:00
5:53 AM,79.0,73.9,84,30.01,10.0,West,4.6,-,N/A,,Clear,260,2013-08-01 10:53:00
6:53 AM,79.0,75.0,88,30.01,10.0,WSW,4.6,-,N/A,,Clear,250,2013-08-01 11:53:00
7:53 AM,80.1,75.0,85,30.03,10.0,West,6.9,-,N/A,,Clear,270,2013-08-01 12:53:00
8:53 AM,82.9,75.0,77,30.04,10.0,West,8.1,-,N/A,,Clear,280,2013-08-01 13:53:00
9:29 AM,84.2,75.2,74,30.04,10.0,WNW,9.2,-,N/A,,Mostly Cloudy,290,2013-08-01 14:29:00
9:53 AM,84.9,75.9,74,30.04,10.0,West,11.5,-,N/A,,Mostly Cloudy,280,2013-08-01 14:53:00
10:53 AM,87.1,73.9,65,30.04,10.0,WNW,9.2,-,N/A,,Mostly Cloudy,290,2013-08-01 15:53:00
11:53 AM,89.1,73.0,59,30.03,10.0,Variable,3.5,-,N/A,,Mostly Cloudy,0,2013-08-01 16:53:00
12:00 PM,89.6,73.4,59,30.03,10.0,Variable,3.5,-,N/A,,Mostly Cloudy,0,2013-08-01 17:00:00
12:53 PM,91.0,75.0,59,30.01,10.0,WNW,8.1,-,N/A,,Scattered Clouds,300,2013-08-01 17:53:00
1:53 PM,91.9,73.9,55,30.00,10.0,Variable,3.5,-,N/A,,Scattered Clouds,0,2013-08-01 18:53:00
2:53 PM,93.9,73.0,51,29.98,10.0,Variable,4.6,-,N/A,,Partly Cloudy,0,2013-08-01 19:53:00
3:53 PM,95.0,72.0,47,29.96,10.0,NNE,3.5,-,N/A,,Partly Cloudy,30,2013-08-01 20:53:00
4:53 PM,93.9,72.0,49,29.93,10.0,ENE,3.5,-,N/A,,Mostly Cloudy,70,2013-08-01 21:53:00
5:53 PM,93.9,72.0,49,29.92,10.0,ENE,4.6,-,N/A,,Partly Cloudy,60,2013-08-01 22:53:00
6:53 PM,91.0,75.9,61,29.92,10.0,Calm,Calm,-,N/A,,Clear,0,2013-08-01 23:53:00
7:53 PM,87.1,77.0,72,29.93,10.0,Calm,Calm,-,N/A,,Clear,0,2013-08-02 00:53:00
8:53 PM,84.9,77.0,77,29.96,10.0,Calm,Calm,-,N/A,,Clear,0,2013-08-02 01:53:00
9:53 PM,84.0,78.1,82,29.96,10.0,Calm,Calm,-,N/A,,Clear,0,2013-08-02 02:53:00
10:53 PM,84.9,77.0,77,29.96,10.0,WSW,6.9,-,N/A,,Clear,240,2013-08-02 03:53:00
11:53 PM,82.9,75.9,79,29.97,10.0,WSW,5.8,-,N/A,,Partly Cloudy,240,2013-08-02 04:53:00